Location: Mascot Post Office (historical)
(40.2645°N, 99.5462°W)
Time: 10:05:20
(UTC+00:00)

NOSS 3-4 (C) - Pass Details

Date: 21 October 2020
Orbit: 886 x 1326 km, 63.4° (Epoch: 06 November)

Event Time Altitude Azimuth Distance (km) Brightness Sun altitude
Rises 02:14:53 0° 330° (NNW) 3,763 7.1 -28.3°
Reaches altitude 10° 02:18:23 10° 349° (N) 2,890 6.2 -28.9°
Enters shadow 02:22:07 18° 23° (NNE) 2,424 5.4 -29.6°
